Grant County, OR

8:57 AM PDT on August 17, 2017 (GMT -0700)
Grant County Regional

Weather History for KGCD - May, 2014

Change the Weather History Date:

Sunday, May 4, 2014

  Actual Average (KBNO) Record (KBNO)
Temperature  
Mean Temperature 54 °F -  
Max Temperature 64 °F 59 °F 86 °F (1966)
Min Temperature 44 °F 30 °F 15 °F (1996)
Degree Days  
Heating Degree Days 11    
Growing Degree Days 4 (Base 50)    
Moisture  
Dew Point 36 °F    
Average Humidity 60    
Maximum Humidity 87    
Minimum Humidity 28    
Precipitation  
Precipitation 0.01 in - - ()
Sea Level Pressure  
Sea Level Pressure 29.86 in    
Wind  
Wind Speed 7 mph (WSW)    
Max Wind Speed 25 mph    
Max Gust Speed 31 mph    
Visibility 10 miles    
Events Rain    
Averages and records for this station are not official NWS values.
T = Trace of Precipitation, MM = Missing Value Source: NWS Daily Summary

Daily Weather History Graph

Daily Weather History Graph

Search for Another Location

Airport or City:

Trip Planner

Search our weather history database for the weather conditions in past years. The results will help you decide how hot, cold, wet, or windy it might be!

Date:

Astronomy

May. 04, 2014 Rise Set
Actual Time 5:42 AM PDT 8:03 PM PDT
Civil Twilight 5:09 AM PDT 8:36 PM PDT
Nautical Twilight 4:29 AM PDT 9:16 PM PDT
Astronomical Twilight 3:44 AM PDT 10:01 PM PDT
Moon 10:10 AM PDT (5/4) 12:13 AM PDT (5/4)
Length of Visible Light 15h 26m
Length of Day
14h 21m
Waxing Crescent, 28% of the Moon is Illuminated
May 4
Waxing Crescent
May 6
First Quarter
May 14
Full
May 21
Last Quarter
May 28
New

Hourly Weather History & Observations

Time (PDT) Temp. Windchill Dew Point Humidity Pressure Visibility Wind Dir Wind Speed Gust Speed Precip Events Conditions
12:15 AM 48.2 °F - 37.4 °F 66% 29.81 in 10.0 mi WSW 4.6 mph - N/A   Mostly Cloudy
12:35 AM 50.0 °F - 37.4 °F 62% 29.81 in 10.0 mi WSW 3.5 mph - N/A   Mostly Cloudy
12:57 AM 48.2 °F - 37.4 °F 66% 29.82 in 10.0 mi WSW 4.6 mph - N/A   Mostly Cloudy
1:15 AM 48.2 °F - 37.4 °F 66% 29.82 in 10.0 mi SW 3.5 mph - N/A   Overcast
1:36 AM 48.2 °F - 37.4 °F 66% 29.82 in 10.0 mi Calm Calm - N/A   Overcast
2:15 AM 48.2 °F - 37.4 °F 66% 29.83 in 10.0 mi WSW 6.9 mph - N/A   Overcast
2:35 AM 48.2 °F - 37.4 °F 66% 29.83 in 10.0 mi WSW 8.1 mph - N/A   Overcast
2:55 AM 48.2 °F - 37.4 °F 66% 29.84 in 10.0 mi WSW 6.9 mph - N/A   Overcast
3:15 AM 48.2 °F - 39.2 °F 71% 29.85 in 10.0 mi WSW 5.8 mph - N/A   Light Drizzle
3:35 AM 48.2 °F - 37.4 °F 66% 29.85 in 10.0 mi WSW 8.1 mph - N/A   Overcast
4:15 AM 46.4 °F 45.2 °F 37.4 °F 71% 29.85 in 10.0 mi West 3.5 mph - N/A   Clear
4:55 AM 44.6 °F 40.2 °F 35.6 °F 71% 29.86 in 10.0 mi SSW 8.1 mph - N/A   Scattered Clouds
5:16 AM 46.4 °F 41.9 °F 33.8 °F 62% 29.85 in 10.0 mi SSW 9.2 mph - N/A   Clear
5:55 AM 44.6 °F 41.4 °F 33.8 °F 66% 29.86 in 10.0 mi SSW 5.8 mph - N/A   Clear
6:15 AM 46.4 °F - 32.0 °F 57% 29.86 in 10.0 mi Calm Calm - N/A   Clear
6:37 AM 48.2 °F - 33.8 °F 58% 29.86 in 10.0 mi Calm Calm - N/A   Clear
6:55 AM 48.2 °F - 35.6 °F 62% 29.86 in 10.0 mi South 8.1 mph - N/A   Clear
7:15 AM 50.0 °F - 35.6 °F 58% 29.87 in 10.0 mi South 9.2 mph - N/A   Scattered Clouds
7:55 AM 50.0 °F - 33.8 °F 54% 29.88 in 10.0 mi South 8.1 mph - N/A   Overcast
8:15 AM 51.8 °F - 33.8 °F 50% 29.87 in 10.0 mi WSW 8.1 mph - N/A   Overcast
8:55 AM 51.8 °F - 32.0 °F 47% 29.87 in 10.0 mi SW 11.5 mph - N/A   Mostly Cloudy
9:55 AM 53.6 °F - 33.8 °F 47% 29.87 in 10.0 mi NNW 5.8 mph - N/A   Overcast
10:15 AM 55.4 °F - 33.8 °F 44% 29.87 in 10.0 mi West 9.2 mph - N/A   Overcast
10:35 AM 55.4 °F - 33.8 °F 44% 29.86 in 10.0 mi NW 6.9 mph - N/A   Overcast
10:55 AM 55.4 °F - 33.8 °F 44% 29.86 in 10.0 mi WNW 13.8 mph - N/A   Overcast
11:17 AM 57.2 °F - 33.8 °F 41% 29.87 in 10.0 mi West 9.2 mph - N/A   Mostly Cloudy
11:35 AM 55.4 °F - 30.2 °F 38% 29.86 in 10.0 mi WNW 9.2 mph - N/A   Mostly Cloudy
12:16 PM 59.0 °F - 32.0 °F 36% 29.85 in 10.0 mi WNW 4.6 mph 16.1 mph N/A   Overcast
12:35 PM 59.0 °F - 30.2 °F 34% 29.85 in 10.0 mi West 13.8 mph 19.6 mph N/A   Mostly Cloudy
12:55 PM 60.8 °F - 30.2 °F 31% 29.84 in 10.0 mi SSW 17.3 mph 23.0 mph N/A   Scattered Clouds
1:35 PM 62.6 °F - 33.8 °F 34% 29.82 in 10.0 mi West 6.9 mph 18.4 mph N/A   Scattered Clouds
1:55 PM 60.8 °F - 30.2 °F 31% 29.82 in 10.0 mi SW 8.1 mph - N/A   Scattered Clouds
2:35 PM 64.4 °F - 30.2 °F 28% 29.81 in 10.0 mi SW 16.1 mph 21.9 mph N/A   Scattered Clouds
2:55 PM 60.8 °F - 30.2 °F 31% 29.81 in 10.0 mi WSW 9.2 mph 17.3 mph N/A   Scattered Clouds
3:35 PM 60.8 °F - 32.0 °F 34% 29.80 in 10.0 mi West 11.5 mph 19.6 mph N/A   Scattered Clouds
3:55 PM 59.0 °F - 33.8 °F 39% 29.81 in 10.0 mi West 15.0 mph 23.0 mph N/A   Scattered Clouds
4:15 PM 60.8 °F - 37.4 °F 42% 29.81 in 10.0 mi WNW 19.6 mph 26.5 mph N/A   Mostly Cloudy
4:35 PM 57.2 °F - 37.4 °F 48% 29.82 in 10.0 mi WNW 13.8 mph - N/A   Mostly Cloudy
5:15 PM 55.4 °F - 37.4 °F 51% 29.82 in 10.0 mi West 13.8 mph - N/A   Overcast
5:35 PM 53.6 °F - 39.2 °F 58% 29.84 in 10.0 mi West 25.3 mph 31.1 mph N/A   Overcast
6:15 PM 48.2 °F - 44.6 °F 87% 29.87 in 5.0 mi West 8.1 mph - 0.01 in Rain Light Rain
6:35 PM 50.0 °F - 44.6 °F 82% 29.87 in 10.0 mi South 3.5 mph - 0.01 in   Overcast
7:15 PM 48.2 °F - 44.6 °F 87% 29.86 in 10.0 mi Calm Calm - N/A   Mostly Cloudy
7:35 PM 48.2 °F - 42.8 °F 82% 29.86 in 10.0 mi SSW 3.5 mph - N/A   Scattered Clouds
8:15 PM 48.2 °F - 44.6 °F 87% 29.87 in 10.0 mi SSW 4.6 mph - N/A Rain Light Rain
8:35 PM 48.2 °F - 41.0 °F 76% 29.88 in 10.0 mi SW 5.8 mph - N/A   Overcast
9:17 PM 46.4 °F - 39.2 °F 76% 29.90 in 10.0 mi Calm Calm - N/A   Scattered Clouds
9:35 PM 46.4 °F 44.3 °F 39.2 °F 76% 29.91 in 10.0 mi NNW 4.6 mph - N/A   Mostly Cloudy
9:55 PM 46.4 °F - 41.0 °F 81% 29.91 in 10.0 mi Calm Calm - N/A   Overcast
10:15 PM 46.4 °F - 39.2 °F 76% 29.92 in 10.0 mi Calm Calm - N/A   Overcast
10:55 PM 44.6 °F 40.7 °F 41.0 °F 87% 29.92 in 10.0 mi WNW 6.9 mph - N/A Rain Light Rain
11:15 PM 44.6 °F 43.1 °F 41.0 °F 87% 29.92 in 10.0 mi WSW 3.5 mph - N/A   Overcast
11:36 PM 44.6 °F 42.2 °F 41.0 °F 87% 29.92 in 10.0 mi SSW 4.6 mph - N/A   Overcast
11:55 PM 44.6 °F 42.2 °F 41.0 °F 87% 29.93 in 10.0 mi SW 4.6 mph - N/A   Overcast